,,PA_Meas_PMT16A,,PR_Meas_QMR101_102,,RH_Meas_QMH101,,SR_Meas_QMS101,,TA_Meas_QMH101,,GenWind,,GenWind,
time,status,PA,status,PR,status,RH,status,SR,status,TA,status,DirAvg,status,SpdAvg,
2010-08-04, 00:00:04,VALID,918.536,VALID,0,VALID,92.777,VALID,0,VALID,20.0343,VALID,50,VALID,2.34648,
2010-08-04, 00:01:04,VALID,918.48,VALID,0,VALID,92.9828,VALID,0,VALID,20.0133,VALID,23,VALID,1.8918,
2010-08-04, 00:02:04,VALID,918.449,VALID,0,VALID,93.0438,VALID,0,VALID,20.0133,VALID,42,VALID,1.41328,
2010-08-04, 00:03:04,VALID,918.442,VALID,0,VALID,92.9066,VALID,0,VALID,19.9938,VALID,41,VALID,1.14414,
2010-08-04, 00:04:04,VALID,918.45,VALID,0,VALID,92.7007,VALID,0,VALID,19.9743,VALID,31,VALID,1.07422,
2010-08-04, 00:05:04,VALID,918.45,VALID,0,VALID,93.0743,VALID,0,VALID,19.9158,VALID,19,VALID,1.27656,
2010-08-04, 00:06:04,VALID,918.397,VALID,0,VALID,92.8608,VALID,0,VALID,19.8978,VALID,324,VALID,1.73867,
2010-08-04, 00:07:04,VALID,918.407,VALID,0,VALID,93.1048,VALID,0,VALID,19.8783,VALID,5,VALID,2.3457,
2010-08-04, 00:08:04,VALID,918.412,VALID,0,VALID,93.3335,VALID,0,VALID,19.8393,VALID,6,VALID,1.22109,
2010-08-04, 00:09:04,VALID,918.415,VALID,0,VALID,93.1658,VALID,0,VALID,19.7793,VALID,13,VALID,2.19219,
2010-08-04, 00:10:04,VALID,918.441,VALID,0,VALID,93.2191,VALID,0,VALID,19.7793,VALID,25,VALID,2.39063,
2010-08-04, 00:11:04,VALID,918.437,VALID,0,VALID,93.0438,VALID,0,VALID,19.8003,VALID,27,VALID,2.61094,
2010-08-04, 00:12:04,VALID,918.48,VALID,0,VALID,92.7007,VALID,0,VALID,19.8003,VALID,22,VALID,2.63086,
2010-08-04, 00:13:04,VALID,918.477,VALID,0,VALID,92.6702,VALID,0,VALID,19.8198,VALID,47,VALID,1.21563,
2010-08-04, 00:14:04,VALID,918.487,VALID,0,VALID,92.6321,VALID,0,VALID,19.8378,VALID,47,VALID,0.983203,
2010-08-04, 00:15:04,VALID,918.547,VALID,0,VALID,92.4568,VALID,0,VALID,19.8588,VALID,47,VALID,0.984375,
2010-08-04, 00:16:04,VALID,918.518,VALID,0,VALID,92.4415,VALID,0,VALID,19.8573,VALID,47,VALID,0.911719,
2010-08-04, 00:17:04,VALID,918.536,VALID,0,VALID,92.3653,VALID,0,VALID,19.8378,VALID,23,VALID,1.91406,
2010-08-04, 00:18:04,VALID,918.5,VALID,0,VALID,91.9765,VALID,0,VALID,19.7403,VALID,37,VALID,1.61523,
2010-08-04, 00:19:04,VALID,918.558,VALID,0,VALID,92.3577,VALID,0,VALID,19.7418,VALID,18,VALID,1.50195,
2010-08-04, 00:20:04,VALID,918.572,VALID,0,VALID,92.411,VALID,0,VALID,19.7418,VALID,35,VALID,1.29648,
2010-08-04, 00:21:04,VALID,918.601,VALID,0,VALID,92.4644,VALID,0,VALID,19.7208,VALID,21,VALID,1.16914,
2010-08-04, 00:22:04,VALID,918.635,VALID,0,VALID,92.3196,VALID,0,VALID,19.7208,VALID,21,VALID,0.945313,
2010-08-04, 00:23:04,VALID,918.652,VALID,0,VALID,92.2052,VALID,0,VALID,19.7418,VALID,21,VALID,0.514844,
2010-08-04, 00:24:04,VALID,918.68,VALID,0,VALID,92.3653,VALID,0,VALID,19.7208,VALID,42,VALID,1.12188,
2010-08-04, 00:25:04,VALID,918.676,VALID,0,VALID,92.2433,VALID,0,VALID,19.7208,VALID,21,VALID,1.15859,
2010-08-04, 00:26:04,VALID,918.676,VALID,0,VALID,92.3119,VALID,0,VALID,19.6818,VALID,21,VALID,0.944922,
2010-08-04, 00:27:04,VALID,918.669,VALID,0,VALID,92.6093,VALID,0,VALID,19.6818,VALID,21,VALID,0.694922,
2010-08-04, 00:28:04,VALID,918.628,VALID,0,VALID,92.6321,VALID,0,VALID,19.7013,VALID,21,VALID,0.471094,
2010-08-04, 00:29:04,VALID,918.619,VALID,0,VALID,92.19,VALID,0,VALID,19.7028,VALID,21,VALID,1.60742,
2010-08-04, 00:30:04,VALID,918.593,VALID,0,VALID,92.2052,VALID,0,VALID,19.6833,VALID,21,VALID,1.06562,
2010-08-04, 00:31:04,VALID,918.572,VALID,0,VALID,92.4949,VALID,0,VALID,19.6818,VALID,12,VALID,2.00039,
2010-08-04, 00:32:04,VALID,918.579,VALID,0,VALID,91.7478,VALID,0,VALID,19.5843,VALID,22,VALID,1.58867,
2010-08-04, 00:33:04,VALID,918.528,VALID,0,VALID,91.1837,VALID,0,VALID,19.5663,VALID,359,VALID,1.62773,
2010-08-04, 00:34:04,VALID,918.523,VALID,0,VALID,91.664,VALID,0,VALID,19.5468,VALID,16,VALID,1.61758,
2010-08-04, 00:35:04,VALID,918.491,VALID,0,VALID,91.7097,VALID,0,VALID,19.4868,VALID,23,VALID,1.69844,
2010-08-04, 00:36:04,VALID,918.458,VALID,0,VALID,91.42,VALID,0,VALID,19.4688,VALID,22,VALID,1.91367,
2010-08-04, 00:37:04,VALID,918.416,VALID,0,VALID,91.7249,VALID,0,VALID,19.4688,VALID,29,VALID,1.92305,
2010-08-04, 00:38:04,VALID,918.372,VALID,0,VALID,91.2904,VALID,0,VALID,19.4298,VALID,18,VALID,1.4793,
2010-08-04, 00:39:04,VALID,918.37,VALID,0,VALID,91.1227,VALID,0,VALID,19.3893,VALID,6,VALID,1.72266,
2010-08-04, 00:40:04,VALID,918.361,VALID,0,VALID,91.1837,VALID,0,VALID,19.3893,VALID,328,VALID,1.12148,
2010-08-04, 00:41:04,VALID,918.347,VALID,0,VALID,91.5344,VALID,0.107441,VALID,19.3684,VALID,27,VALID,2.08906,
2010-08-04, 00:42:04,VALID,918.329,VALID,0,VALID,91.5725,VALID,0.107441,VALID,19.3684,VALID,28,VALID,1.80156,
2010-08-04, 00:43:04,VALID,918.324,VALID,0,VALID,91.824,VALID,0.107441,VALID,19.3893,VALID,28,VALID,1.65859,
2010-08-04, 00:44:04,VALID,918.34,VALID,0,VALID,91.9536,VALID,0.107441,VALID,19.3893,VALID,28,VALID,1.42109,
2010-08-04, 00:45:04,VALID,918.341,VALID,0,VALID,91.8164,VALID,0.107441,VALID,19.3489,VALID,329,VALID,1.16836,
2010-08-04, 00:46:04,VALID,918.322,VALID,0,VALID,91.9079,VALID,0.107441,VALID,19.3698,VALID,329,VALID,1.12227,
2010-08-04, 00:47:04,VALID,918.315,VALID,0,VALID,91.946,VALID,0,VALID,19.3489,VALID,346,VALID,1.76797,
2010-08-04, 00:48:04,VALID,918.289,VALID,0,VALID,92.1366,VALID,0,VALID,19.3294,VALID,15,VALID,1.05313,
2010-08-04, 00:49:04,VALID,918.29,VALID,0,VALID,92.3348,VALID,0,VALID,19.3503,VALID,14,VALID,1.1582,
2010-08-04, 00:50:04,VALID,918.263,VALID,0,VALID,92.4187,VALID,0.107441,VALID,19.3099,VALID,14,VALID,0.855469,
2010-08-04, 00:51:04,VALID,918.216,VALID,0,VALID,92.2967,VALID,0,VALID,19.3294,VALID,14,VALID,1.30078,
2010-08-04, 00:52:04,VALID,918.234,VALID,0,VALID,92.2052,VALID,0,VALID,19.3698,VALID,14,VALID,1.22461,
2010-08-04, 00:53:04,VALID,918.213,VALID,0,VALID,90.772,VALID,0,VALID,19.3698,VALID,357,VALID,0.923437,
2010-08-04, 00:54:04,VALID,918.208,VALID,0,VALID,90.5814,VALID,0,VALID,19.3489,VALID,35,VALID,2.67461,
2010-08-04, 00:55:04,VALID,918.219,VALID,0,VALID,91.1608,VALID,0.107441,VALID,19.4088,VALID,24,VALID,0.544141,
2010-08-04, 00:56:04,VALID,918.213,VALID,0,VALID,91.2599,VALID,0,VALID,19.4268,VALID,25,VALID,0.835938,
2010-08-04, 00:57:04,VALID,918.189,VALID,0,VALID,91.3971,VALID,0,VALID,19.4673,VALID,24,VALID,0.263281,
2010-08-04, 00:58:04,VALID,918.217,VALID,0,VALID,91.3133,VALID,0,VALID,19.4868,VALID,24,VALID,0.744141,
2010-08-04, 00:59:04,VALID,918.247,VALID,0,VALID,91.542,VALID,0,VALID,19.4868,VALID,24,VALID,0.266016,
2010-08-04, 01:00:04,VALID,918.257,VALID,0,VALID,91.0846,VALID,0.107441,VALID,19.4868,VALID,24,VALID,0.607813,
2010-08-04, 01:01:04,VALID,918.248,VALID,0,VALID,91.2828,VALID,0,VALID,19.4463,VALID,24,VALID,0.597656,
2010-08-04, 01:02:04,VALID,918.215,VALID,0,VALID,91.1074,VALID,0.107441,VALID,19.4673,VALID,24,VALID,0.555078,
2010-08-04, 01:03:04,VALID,918.207,VALID,0,VALID,90.3604,VALID,0.107441,VALID,19.4283,VALID,24,VALID,0.632813,
2010-08-04, 01:04:04,VALID,918.168,VALID,0,VALID,90.9702,VALID,0.107441,VALID,19.4074,VALID,24,VALID,0.222656,
2010-08-04, 01:05:04,VALID,918.148,VALID,0,VALID,91.2828,VALID,0.107441,VALID,19.4074,VALID,24,VALID,0.161719,
2010-08-04, 01:06:04,VALID,918.153,VALID,0,VALID,91.6792,VALID,0.107441,VALID,19.4268,VALID,24,VALID,0.0773437,
2010-08-04, 01:07:04,VALID,918.138,VALID,0,VALID,91.9994,VALID,0,VALID,19.4673,VALID,24,VALID,0.219141,
2010-08-04, 01:08:04,VALID,918.089,VALID,0,VALID,91.3209,VALID,0.107441,VALID,19.4658,VALID,24,VALID,0.242188,
2010-08-04, 01:09:04,VALID,918.07,VALID,0,VALID,91.4886,VALID,0.107441,VALID,19.4868,VALID,24,VALID,0.489844,
2010-08-04, 01:10:04,VALID,918.058,VALID,0,VALID,90.7644,VALID,0,VALID,19.4868,VALID,24,VALID,0.662109,
2010-08-04, 01:11:04,VALID,918.019,VALID,0,VALID,91.4124,VALID,0,VALID,19.5063,VALID,24,VALID,0.861328,
2010-08-04, 01:12:04,VALID,917.997,VALID,0,VALID,91.5039,VALID,0.107441,VALID,19.4868,VALID,24,VALID,0.907812,
2010-08-04, 01:13:04,VALID,917.998,VALID,0,VALID,91.3057,VALID,0,VALID,19.4478,VALID,24,VALID,1.05117,
2010-08-04, 01:14:04,VALID,917.983,VALID,0,VALID,91.4505,VALID,0,VALID,19.3893,VALID,24,VALID,1.21758,
2010-08-04, 01:15:04,VALID,917.965,VALID,0,VALID,91.3361,VALID,0,VALID,19.3308,VALID,24,VALID,1.19062,
2010-08-04, 01:16:04,VALID,917.907,VALID,0,VALID,91.542,VALID,0.107441,VALID,19.3308,VALID,24,VALID,0.887109,
2010-08-04, 01:17:04,VALID,917.885,VALID,0,VALID,91.5191,VALID,0,VALID,19.3113,VALID,24,VALID,1.21563,
2010-08-04, 01:18:04,VALID,917.877,VALID,0,VALID,90.8483,VALID,0,VALID,19.2918,VALID,349,VALID,1.05547,
2010-08-04, 01:19:04,VALID,917.865,VALID,0,VALID,90.9855,VALID,0,VALID,19.2723,VALID,349,VALID,0.771875,
2010-08-04, 01:20:04,VALID,917.824,VALID,0,VALID,91.0312,VALID,0.107441,VALID,19.2723,VALID,349,VALID,0.870313,
2010-08-04, 01:21:04,VALID,917.833,VALID,0,VALID,90.6653,VALID,0,VALID,19.2528,VALID,349,VALID,1.33984,
2010-08-04, 01:22:04,VALID,917.807,VALID,0,VALID,90.5967,VALID,0,VALID,19.2334,VALID,349,VALID,1.42852,
2010-08-04, 01:23:04,VALID,917.805,VALID,0,VALID,90.4671,VALID,0.107441,VALID,19.2334,VALID,349,VALID,1.22148,
2010-08-04, 01:24:04,VALID,917.788,VALID,0,VALID,90.7034,VALID,0,VALID,19.2139,VALID,349,VALID,1.10078,
2010-08-04, 01:25:04,VALID,917.82,VALID,0,VALID,90.5128,VALID,0,VALID,19.2334,VALID,350,VALID,0.9875,
2010-08-04, 01:26:04,VALID,917.758,VALID,0,VALID,90.7644,VALID,0,VALID,19.2528,VALID,351,VALID,1.34609,
2010-08-04, 01:27:04,VALID,917.777,VALID,0,VALID,90.6195,VALID,0.107441,VALID,19.2139,VALID,16,VALID,1.15273,
2010-08-04, 01:28:04,VALID,917.76,VALID,0,VALID,91.1303,VALID,0,VALID,19.2139,VALID,16,VALID,0.794922,
2010-08-04, 01:29:04,VALID,917.748,VALID,0,VALID,90.4366,VALID,0,VALID,19.1944,VALID,16,VALID,0.913281,
2010-08-04, 01:30:04,VALID,917.726,VALID,0,VALID,90.0402,VALID,0,VALID,19.1944,VALID,16,VALID,1.16992,
2010-08-04, 01:31:04,VALID,917.688,VALID,0,VALID,90.3222,VALID,0,VALID,19.1958,VALID,16,VALID,0.557813,
2010-08-04, 01:32:04,VALID,917.672,VALID,0,VALID,90.6272,VALID,0,VALID,19.1944,VALID,16,VALID,0.741797,
2010-08-04, 01:33:04,VALID,917.6,VALID,0,VALID,90.5814,VALID,0.107441,VALID,19.1944,VALID,16,VALID,0.951172,
2010-08-04, 01:34:04,VALID,917.608,VALID,0,VALID,90.4061,VALID,0.107441,VALID,19.1554,VALID,16,VALID,0.924219,
2010-08-04, 01:35:04,VALID,917.563,VALID,0,VALID,90.3908,VALID,0.107441,VALID,19.1359,VALID,16,VALID,0.887109,
2010-08-04, 01:36:04,VALID,917.57,VALID,0,VALID,90.1926,VALID,0,VALID,19.1164,VALID,16,VALID,0.858594,
2010-08-04, 01:37:04,VALID,917.549,VALID,0,VALID,89.9334,VALID,0,VALID,19.0774,VALID,16,VALID,0.635938,
2010-08-04, 01:38:04,VALID,917.526,VALID,0,VALID,90.0402,VALID,0.107441,VALID,19.0774,VALID,16,VALID,1.20078,
2010-08-04, 01:39:04,VALID,917.507,VALID,0,VALID,89.8801,VALID,0,VALID,19.0579,VALID,16,VALID,0.990234,
2010-08-04, 01:40:04,VALID,917.447,VALID,0,VALID,89.9868,VALID,0.107441,VALID,19.0579,VALID,16,VALID,1.13086,
2010-08-04, 01:41:04,VALID,917.44,VALID,0,VALID,90.4823,VALID,0,VALID,19.0398,VALID,16,VALID,1.22539,
2010-08-04, 01:42:04,VALID,917.411,VALID,0,VALID,90.2308,VALID,0,VALID,18.9799,VALID,16,VALID,1.03437,
2010-08-04, 01:43:04,VALID,917.37,VALID,0,VALID,89.9868,VALID,0,VALID,18.9799,VALID,16,VALID,1.19219,
2010-08-04, 01:44:04,VALID,917.338,VALID,0,VALID,88.9881,VALID,0,VALID,18.9604,VALID,16,VALID,1.24258,
2010-08-04, 01:45:04,VALID,917.323,VALID,0,VALID,89.2854,VALID,0,VALID,18.9604,VALID,16,VALID,1.175,
2010-08-04, 01:46:04,VALID,917.328,VALID,0,VALID,87.2271,VALID,0,VALID,18.9994,VALID,16,VALID,0.829297,
2010-08-04, 01:47:04,VALID,917.285,VALID,0,VALID,87.1128,VALID,0,VALID,19.0969,VALID,17,VALID,0.884766,
2010-08-04, 01:48:04,VALID,917.237,VALID,0,VALID,86.4724,VALID,0,VALID,19.1359,VALID,17,VALID,0.898828,
2010-08-04, 01:49:04,VALID,917.225,VALID,0,VALID,86.3047,VALID,0,VALID,19.2139,VALID,17,VALID,1.00586,
2010-08-04, 01:50:04,VALID,917.224,VALID,0,VALID,86.9908,VALID,0,VALID,19.2334,VALID,17,VALID,0.203906,
2010-08-04, 01:51:05,VALID,917.188,VALID,0,VALID,87.7684,VALID,0,VALID,19.2334,VALID,17,VALID,0.616406,
2010-08-04, 01:52:05,VALID,917.187,VALID,0,VALID,88.424,VALID,0,VALID,19.0954,VALID,17,VALID,0.837891,
2010-08-04, 01:53:05,VALID,917.188,VALID,0,VALID,88.607,VALID,0,VALID,19.0189,VALID,17,VALID,0.937891,
2010-08-04, 01:54:05,VALID,917.169,VALID,0,VALID,89.3007,VALID,0,VALID,18.9604,VALID,17,VALID,0.565234,
2010-08-04, 01:55:05,VALID,917.169,VALID,0,VALID,89.9106,VALID,0.107441,VALID,18.881,VALID,17,VALID,0.326172,
2010-08-04, 01:56:05,VALID,917.113,VALID,0,VALID,90.5357,VALID,0,VALID,18.8434,VALID,17,VALID,0.682031,
2010-08-04, 01:57:05,VALID,917.071,VALID,0,VALID,90.9778,VALID,0,VALID,18.746,VALID,17,VALID,0.927344,
2010-08-04, 01:58:05,VALID,917.025,VALID,0,VALID,91.4505,VALID,0,VALID,18.668,VALID,17,VALID,1.04648,
2010-08-04, 01:59:05,VALID,916.987,VALID,0,VALID,91.9003,VALID,0,VALID,18.59,VALID,17,VALID,1.05547,
2010-08-04, 02:00:05,VALID,916.935,VALID,0,VALID,92.3501,VALID,0,VALID,18.5121,VALID,17,VALID,1.0207,
2010-08-04, 02:01:05,VALID,916.932,VALID,0,VALID,92.6245,VALID,0,VALID,18.4731,VALID,17,VALID,0.789844,
2010-08-04, 02:02:05,VALID,916.931,VALID,0,VALID,92.7465,VALID,0,VALID,18.4731,VALID,17,VALID,0.0195313,
2010-08-04, 02:03:05,VALID,916.938,VALID,0,VALID,92.7922,VALID,0,VALID,18.5121,VALID,17,VALID,0,
2010-08-04, 02:04:05,VALID,916.923,VALID,0,VALID,92.5711,VALID,0,VALID,18.5121,VALID,17,VALID,0.301953,
2010-08-04, 02:05:05,VALID,916.95,VALID,0,VALID,92.4949,VALID,0,VALID,18.5316,VALID,17,VALID,0.562109,
2010-08-04, 02:06:05,VALID,916.912,VALID,0,VALID,92.5178,VALID,0,VALID,18.5705,VALID,17,VALID,0.65,
2010-08-04, 02:07:05,VALID,916.901,VALID,0,VALID,92.4797,VALID,0,VALID,18.59,VALID,17,VALID,0.469531,
2010-08-04, 02:08:05,VALID,916.879,VALID,0,VALID,92.3653,VALID,0,VALID,18.5705,VALID,17,VALID,0.302344,
2010-08-04, 02:09:05,VALID,916.892,VALID,0,VALID,92.2586,VALID,0,VALID,18.6499,VALID,17,VALID,0.351172,
2010-08-04, 02:10:05,VALID,916.841,VALID,0,VALID,92.2281,VALID,0,VALID,18.6485,VALID,17,VALID,0,
2010-08-04, 02:11:05,VALID,916.845,VALID,0,VALID,92.2967,VALID,0,VALID,18.6875,VALID,17,VALID,0,
2010-08-04, 02:12:05,VALID,916.825,VALID,0,VALID,92.19,VALID,0,VALID,18.707,VALID,17,VALID,0,
2010-08-04, 02:13:05,VALID,916.825,VALID,0,VALID,92.2433,VALID,0.107441,VALID,18.7265,VALID,17,VALID,0,
2010-08-04, 02:14:05,VALID,916.793,VALID,0,VALID,92.2814,VALID,0,VALID,18.7279,VALID,17,VALID,0.485938,
2010-08-04, 02:15:05,VALID,916.805,VALID,0,VALID,92.4339,VALID,0,VALID,18.6889,VALID,17,VALID,0.827344,
2010-08-04, 02:16:05,VALID,916.795,VALID,0,VALID,92.3501,VALID,0,VALID,18.668,VALID,17,VALID,0.789453,
2010-08-04, 02:17:05,VALID,916.812,VALID,0,VALID,92.0985,VALID,0,VALID,18.6694,VALID,17,VALID,0.5,
2010-08-04, 02:18:05,VALID,916.815,VALID,0,VALID,91.9308,VALID,0,VALID,18.6694,VALID,17,VALID,0.0789063,
2010-08-04, 02:19:05,VALID,916.831,VALID,0,VALID,91.4886,VALID,0,VALID,18.7084,VALID,17,VALID,0.329297,
2010-08-04, 02:20:05,VALID,916.824,VALID,0,VALID,91.0083,VALID,0,VALID,18.7669,VALID,17,VALID,0.362891,
2010-08-04, 02:21:05,VALID,916.843,VALID,0,VALID,91.0007,VALID,0,VALID,18.8449,VALID,17,VALID,0.458203,
2010-08-04, 02:22:05,VALID,916.856,VALID,0,VALID,91.2142,VALID,0,VALID,18.8449,VALID,17,VALID,0.434375,
2010-08-04, 02:23:05,VALID,916.855,VALID,0,VALID,91.5496,VALID,0,VALID,18.8434,VALID,17,VALID,0.325391,
2010-08-04, 02:24:05,VALID,916.835,VALID,0,VALID,91.7249,VALID,0,VALID,18.8644,VALID,17,VALID,0.305078,
2010-08-04, 02:25:05,VALID,916.852,VALID,0,VALID,91.3438,VALID,0,VALID,18.8449,VALID,17,VALID,0.264453,
2010-08-04, 02:26:05,VALID,916.846,VALID,0,VALID,90.8711,VALID,0,VALID,18.8839,VALID,17,VALID,0.176953,
2010-08-04, 02:27:05,VALID,916.821,VALID,0,VALID,90.5204,VALID,0,VALID,18.9438,VALID,17,VALID,0.195313,
2010-08-04, 02:28:05,VALID,916.815,VALID,0,VALID,89.8038,VALID,0,VALID,19.0023,VALID,17,VALID,0.333203,
2010-08-04, 02:29:05,VALID,916.815,VALID,0,VALID,89.842,VALID,0,VALID,19.0413,VALID,17,VALID,0.600781,
2010-08-04, 02:30:05,VALID,916.815,VALID,0,VALID,90.3299,VALID,0,VALID,19.0218,VALID,17,VALID,0.431641,
2010-08-04, 02:31:05,VALID,916.831,VALID,0,VALID,90.3375,VALID,0,VALID,19.0023,VALID,17,VALID,0.490625,
2010-08-04, 02:32:05,VALID,916.826,VALID,0,VALID,90.0935,VALID,0,VALID,18.9828,VALID,17,VALID,0.639844,
2010-08-04, 02:33:05,VALID,916.848,VALID,0,VALID,90.1545,VALID,0,VALID,18.9619,VALID,17,VALID,0.586719,
2010-08-04, 02:34:05,VALID,916.841,VALID,0,VALID,90.2079,VALID,0,VALID,18.9619,VALID,17,VALID,0.430469,
2010-08-04, 02:35:05,VALID,916.882,VALID,0,VALID,90.0249,VALID,0,VALID,18.9828,VALID,17,VALID,0.485547,
2010-08-04, 02:36:05,VALID,916.893,VALID,0,VALID,90.0935,VALID,0,VALID,18.9619,VALID,17,VALID,0.480078,
2010-08-04, 02:37:05,VALID,916.906,VALID,0,VALID,90.3985,VALID,0,VALID,18.9828,VALID,17,VALID,0.710938,
2010-08-04, 02:38:05,VALID,916.948,VALID,0,VALID,90.5738,VALID,0,VALID,18.9424,VALID,16,VALID,0.354297,
2010-08-04, 02:39:05,VALID,916.962,VALID,0,VALID,90.8178,VALID,0,VALID,18.9438,VALID,16,VALID,0.545703,
2010-08-04, 02:40:05,VALID,916.983,VALID,0,VALID,91.1227,VALID,0,VALID,18.9424,VALID,16,VALID,0.199219,
2010-08-04, 02:41:05,VALID,916.996,VALID,0,VALID,91.1913,VALID,0,VALID,18.9424,VALID,16,VALID,0.339063,
2010-08-04, 02:42:05,VALID,916.991,VALID,0,VALID,91.3819,VALID,0,VALID,18.9019,VALID,16,VALID,0.298828,
2010-08-04, 02:43:05,VALID,917.01,VALID,0,VALID,91.5572,VALID,0,VALID,18.8824,VALID,16,VALID,0.426953,
2010-08-04, 02:44:05,VALID,917.032,VALID,0,VALID,91.7783,VALID,0,VALID,18.8644,VALID,16,VALID,0.484766,
2010-08-04, 02:45:05,VALID,917.005,VALID,0,VALID,91.9765,VALID,0,VALID,18.8045,VALID,16,VALID,0.480859,
2010-08-04, 02:46:05,VALID,917.016,VALID,0,VALID,92.2586,VALID,0,VALID,18.7655,VALID,16,VALID,0.778125,
2010-08-04, 02:47:05,VALID,916.993,VALID,0,VALID,92.5559,VALID,0,VALID,18.7669,VALID,16,VALID,0.455859,
2010-08-04, 02:48:05,VALID,916.986,VALID,0,VALID,92.9066,VALID,0,VALID,18.7265,VALID,16,VALID,0.421484,
2010-08-04, 02:49:05,VALID,916.966,VALID,0,VALID,93.0819,VALID,0,VALID,18.7265,VALID,16,VALID,0.150391,
2010-08-04, 02:50:05,VALID,916.956,VALID,0,VALID,93.2649,VALID,0,VALID,18.7265,VALID,16,VALID,0.414063,
2010-08-04, 02:51:05,VALID,916.942,VALID,0,VALID,93.4631,VALID,0,VALID,18.7474,VALID,16,VALID,0.268359,
2010-08-04, 02:52:05,VALID,916.921,VALID,0,VALID,93.6765,VALID,0,VALID,18.746,VALID,16,VALID,0.604688,
2010-08-04, 02:53:05,VALID,916.887,VALID,0,VALID,93.4707,VALID,0,VALID,18.7265,VALID,16,VALID,0.618359,
2010-08-04, 02:54:05,VALID,916.894,VALID,0,VALID,93.5774,VALID,0,VALID,18.707,VALID,16,VALID,0.503906,
2010-08-04, 02:55:05,VALID,916.855,VALID,0,VALID,93.5088,VALID,0,VALID,18.7279,VALID,16,VALID,0.524609,
2010-08-04, 02:56:05,VALID,916.841,VALID,0,VALID,93.2801,VALID,0,VALID,18.7279,VALID,16,VALID,0.560938,
2010-08-04, 02:57:05,VALID,916.808,VALID,0,VALID,92.9523,VALID,0,VALID,18.7084,VALID,16,VALID,0.719922,
2010-08-04, 02:58:05,VALID,916.838,VALID,0,VALID,92.6855,VALID,0,VALID,18.6889,VALID,16,VALID,0.673437,
2010-08-04, 02:59:05,VALID,916.839,VALID,0,VALID,92.5406,VALID,0.107441,VALID,18.668,VALID,16,VALID,0.376563,
2010-08-04, 03:00:05,VALID,916.833,VALID,0,VALID,92.5406,VALID,0,VALID,18.7084,VALID,16,VALID,0.387891,
2010-08-04, 03:01:05,VALID,916.865,VALID,0,VALID,92.4187,VALID,0.107441,VALID,18.6875,VALID,16,VALID,0.328125,
2010-08-04, 03:02:05,VALID,916.862,VALID,0,VALID,92.2738,VALID,0.107441,VALID,18.6875,VALID,16,VALID,0.205469,
2010-08-04, 03:03:05,VALID,916.853,VALID,0,VALID,92.0451,VALID,0,VALID,18.7084,VALID,16,VALID,0,
2010-08-04, 03:04:05,VALID,916.883,VALID,0,VALID,92.1595,VALID,0,VALID,18.7265,VALID,16,VALID,0,
2010-08-04, 03:05:05,VALID,916.843,VALID,0,VALID,92.19,VALID,0,VALID,18.7864,VALID,16,VALID,0.0234375,
2010-08-04, 03:06:05,VALID,916.853,VALID,0,VALID,91.8774,VALID,0,VALID,18.8254,VALID,16,VALID,0,
2010-08-04, 03:07:05,VALID,916.789,VALID,0,VALID,91.4657,VALID,0,VALID,18.8629,VALID,16,VALID,0.199609,
2010-08-04, 03:08:05,VALID,916.766,VALID,0,VALID,91.237,VALID,0,VALID,18.9019,VALID,16,VALID,0.0941406,
2010-08-04, 03:09:05,VALID,916.768,VALID,0,VALID,91.077,VALID,0,VALID,18.9409,VALID,16,VALID,0,
2010-08-04, 03:10:05,VALID,916.774,VALID,0,VALID,91.0541,VALID,0,VALID,18.9424,VALID,16,VALID,0.907031,
2010-08-04, 03:11:05,VALID,916.769,VALID,0,VALID,91.6106,VALID,0,VALID,18.785,VALID,16,VALID,0.804297,
2010-08-04, 03:12:05,VALID,916.778,VALID,0,VALID,92.0223,VALID,0,VALID,18.6889,VALID,16,VALID,0.719531,
2010-08-04, 03:13:05,VALID,916.797,VALID,0,VALID,92.3196,VALID,0,VALID,18.59,VALID,16,VALID,0.855078,
2010-08-04, 03:14:05,VALID,916.816,VALID,0,VALID,92.6169,VALID,0.107441,VALID,18.533,VALID,16,VALID,0.989453,
2010-08-04, 03:15:05,VALID,916.831,VALID,0,VALID,92.7922,VALID,0,VALID,18.4745,VALID,16,VALID,0.896875,
2010-08-04, 03:16:05,VALID,916.829,VALID,0,VALID,92.9371,VALID,0,VALID,18.455,VALID,16,VALID,0.84375,
2010-08-04, 03:17:05,VALID,916.799,VALID,0,VALID,92.9904,VALID,0,VALID,18.416,VALID,16,VALID,0.800391,
2010-08-04, 03:18:05,VALID,916.836,VALID,0,VALID,93.1429,VALID,0,VALID,18.377,VALID,16,VALID,0.787891,
2010-08-04, 03:19:05,VALID,916.788,VALID,0,VALID,93.3564,VALID,0,VALID,18.3575,VALID,16,VALID,0.714063,
2010-08-04, 03:20:05,VALID,916.816,VALID,0,VALID,93.4936,VALID,0,VALID,18.338,VALID,16,VALID,0.686328,
2010-08-04, 03:21:05,VALID,916.811,VALID,0,VALID,93.6765,VALID,0,VALID,18.2977,VALID,16,VALID,0.724219,
2010-08-04, 03:22:05,VALID,916.771,VALID,0,VALID,93.8138,VALID,0,VALID,18.299,VALID,16,VALID,0.875391,
2010-08-04, 03:23:05,VALID,916.815,VALID,0,VALID,93.8976,VALID,0,VALID,18.338,VALID,16,VALID,0.871094,
2010-08-04, 03:24:05,VALID,916.795,VALID,0,VALID,93.9205,VALID,0,VALID,18.3172,VALID,16,VALID,0.511719,
2010-08-04, 03:25:05,VALID,916.807,VALID,0,VALID,93.9052,VALID,0,VALID,18.3575,VALID,16,VALID,0.496094,
2010-08-04, 03:26:05,VALID,916.81,VALID,0,VALID,93.7985,VALID,0,VALID,18.3756,VALID,16,VALID,0.135937,
2010-08-04, 03:27:05,VALID,916.805,VALID,0,VALID,93.7909,VALID,0,VALID,18.3951,VALID,16,VALID,0.0953125,
2010-08-04, 03:28:05,VALID,916.789,VALID,0,VALID,93.7909,VALID,0,VALID,18.4146,VALID,16,VALID,0,
2010-08-04, 03:29:05,VALID,916.796,VALID,0,VALID,93.5317,VALID,0,VALID,18.455,VALID,16,VALID,0,
2010-08-04, 03:30:05,VALID,916.773,VALID,0,VALID,93.2191,VALID,0,VALID,18.4146,VALID,16,VALID,0,
2010-08-04, 03:31:05,VALID,916.771,VALID,0,VALID,93.0438,VALID,0,VALID,18.4355,VALID,16,VALID,0,
2010-08-04, 03:32:05,VALID,916.778,VALID,0,VALID,93.0895,VALID,0,VALID,18.3951,VALID,16,VALID,0,
2010-08-04, 03:33:05,VALID,916.791,VALID,0,VALID,93.0895,VALID,0,VALID,18.416,VALID,16,VALID,0,
2010-08-04, 03:34:05,VALID,916.81,VALID,0,VALID,93.1353,VALID,0,VALID,18.3951,VALID,16,VALID,0.107031,
2010-08-04, 03:35:05,VALID,916.846,VALID,0,VALID,93.1734,VALID,0,VALID,18.3965,VALID,16,VALID,0.00585938,
2010-08-04, 03:36:05,VALID,916.812,VALID,0,VALID,93.303,VALID,0,VALID,18.3951,VALID,16,VALID,0,
2010-08-04, 03:37:05,VALID,916.86,VALID,0,VALID,93.181,VALID,0,VALID,18.3965,VALID,16,VALID,0.296094,
2010-08-04, 03:38:05,VALID,916.862,VALID,0,VALID,93.0514,VALID,0,VALID,18.3951,VALID,16,VALID,0.477734,
2010-08-04, 03:39:05,VALID,916.851,VALID,0,VALID,92.8303,VALID,0,VALID,18.3951,VALID,16,VALID,0.409375,
2010-08-04, 03:40:05,VALID,916.818,VALID,0,VALID,92.4873,VALID,0,VALID,18.3172,VALID,16,VALID,0.5,
2010-08-04, 03:41:05,VALID,916.841,VALID,0,VALID,93.059,VALID,0,VALID,18.2782,VALID,16,VALID,0.764063,
2010-08-04, 03:42:05,VALID,916.812,VALID,0,VALID,93.1124,VALID,0,VALID,18.2211,VALID,16,VALID,0.866406,
2010-08-04, 03:43:05,VALID,916.809,VALID,0,VALID,93.4783,VALID,0,VALID,18.1821,VALID,16,VALID,0.989062,
2010-08-04, 03:44:05,VALID,916.792,VALID,0,VALID,93.5546,VALID,0,VALID,18.1222,VALID,16,VALID,0.960938,
2010-08-04, 03:45:05,VALID,916.789,VALID,0,VALID,93.7451,VALID,0,VALID,18.1236,VALID,16,VALID,0.943359,
2010-08-04, 03:46:05,VALID,916.772,VALID,0,VALID,93.7909,VALID,0,VALID,18.0846,VALID,16,VALID,0.587891,